| time (UTC) | temp F | wind direction | speed knots | gust knots | rain 1hr in | rain 24hr in | rain mn in | humidity % | barometer mb |
| 20260506014506 | 73 | 348 | 4.3 | 10.4 | 0.00 | 0.00 | 0.00 | 69 | 1007.0 |
| 20260506014005 | 73 | 350 | 1.7 | 6.1 | 0.00 | 0.00 | 0.00 | 68 | 1006.9 |
| 20260506013006 | 73 | 15 | 3.5 | 10.4 | 0.00 | 0.00 | 0.00 | 68 | 1007.0 |
| 20260506012006 | 73 | 22 | 2.6 | 5.2 | 0.00 | 0.00 | 0.00 | 67 | 1006.7 |
| 20260506011506 | 73 | 56 | 2.6 | 8.7 | 0.00 | 0.00 | 0.00 | 67 | 1006.6 |
| 20260506011005 | 74 | 351 | 5.2 | 11.3 | 0.00 | 0.00 | 0.00 | 67 | 1006.4 |
| 20260506010006 | 74 | 340 | 5.2 | 11.3 | 0.00 | 0.00 | 0.00 | 67 | 1006.2 |
| 20260506005506 | 74 | 336 | 5.2 | 10.4 | 0.00 | 0.00 | 0.00 | 67 | 1005.9 |
| 20260506005006 | 74 | 16 | 2.6 | 7.8 | 0.00 | 0.00 | 0.00 | 67 | 1006.2 |
| 20260506004505 | 74 | 345 | 5.2 | 10.4 | 0.00 | 0.00 | 0.00 | 67 | 1006.4 |
| 20260506004006 | 74 | 350 | 5.2 | 12.2 | 0.00 | 0.00 | 0.00 | 66 | 1006.3 |
| 20260506003506 | 75 | 15 | 5.2 | 11.3 | 0.00 | 0.00 | 0.00 | 66 | 1006.3 |
| 20260506003005 | 75 | 10 | 3.5 | 11.3 | 0.00 | 0.00 | 0.00 | 66 | 1006.2 |
| 20260506002506 | 75 | 4 | 4.3 | 8.7 | 0.00 | 0.00 | 0.00 | 66 | 1006.1 |
| 20260506002006 | 75 | 10 | 6.1 | 12.2 | 0.00 | 0.00 | 0.00 | 65 | 1006.0 |
| 20260506001505 | 76 | 357 | 6.1 | 12.2 | 0.00 | 0.00 | 0.00 | 65 | 1006.1 |
| 20260506001005 | 77 | 6 | 7.8 | 11.3 | 0.00 | 0.00 | 0.00 | 64 | 1005.9 |
| 20260506000505 | 78 | 350 | 6.1 | 13.9 | 0.00 | 0.00 | 0.00 | 63 | 1005.5 |
| 20260506000006 | 78 | 342 | 6.1 | 13.0 | 0.00 | 0.00 | 0.00 | 62 | 1005.2 |
| 20260505235506 | 79 | 353 | 4.3 | 11.3 | 0.00 | 0.00 | 0.00 | 62 | 1005.2 |
| 20260505234506 | 80 | 302 | 2.6 | 11.3 | 0.00 | 0.00 | 0.00 | 61 | 1005.4 |
| 20260505234005 | 80 | 335 | 10.4 | 14.8 | 0.00 | 0.00 | 0.00 | 60 | 1005.4 |
| 20260505233505 | 81 | 332 | 5.2 | 14.8 | 0.00 | 0.00 | 0.00 | 59 | 1005.4 |
| 20260505233006 | 81 | 348 | 7.8 | 13.9 | 0.00 | 0.00 | 0.00 | 59 | 1005.3 |
| 20260505232505 | 82 | 336 | 6.1 | 13.9 | 0.00 | 0.00 | 0.00 | 58 | 1005.1 |
| 20260505232006 | 84 | 338 | 8.7 | 14.8 | 0.00 | 0.00 | 0.00 | 56 | 1004.9 |
| 20260505231506 | 84 | 333 | 4.3 | 12.2 | 0.00 | 0.00 | 0.00 | 53 | 1004.8 |
| 20260505231006 | 85 | 340 | 5.2 | 11.3 | 0.00 | 0.00 | 0.00 | 51 | 1004.8 |
| 20260505230506 | 85 | 354 | 5.2 | 13.0 | 0.00 | 0.00 | 0.00 | 50 | 1004.6 |
| 20260505230006 | 86 | 346 | 6.1 | 15.6 | 0.00 | 0.00 | 0.00 | 49 | 1004.4 |
| 20260505225506 | 86 | 357 | 6.1 | 14.8 | 0.00 | 0.00 | 0.00 | 47 | 1004.4 |
| 20260505225005 | 87 | 347 | 4.3 | 13.0 | 0.00 | 0.00 | 0.00 | 47 | 1004.4 |
| 20260505224505 | 87 | 344 | 4.3 | 12.2 | 0.00 | 0.00 | 0.00 | 46 | 1004.5 |
| 20260505224006 | 88 | 334 | 5.2 | 11.3 | 0.00 | 0.00 | 0.00 | 46 | 1004.3 |
| 20260505223505 | 89 | 269 | 5.2 | 7.8 | 0.00 | 0.00 | 0.00 | 50 | 1004.0 |
| 20260505223005 | 89 | 257 | 1.7 | 4.3 | 0.00 | 0.00 | 0.00 | 50 | 1004.0 |
| 20260505222505 | 89 | 268 | 3.5 | 7.0 | 0.00 | 0.00 | 0.00 | 51 | 1004.0 |
| 20260505222006 | 89 | 260 | 3.5 | 10.4 | 0.00 | 0.00 | 0.00 | 50 | 1003.9 |
| 20260505221505 | 90 | 204 | 3.5 | 7.0 | 0.00 | 0.00 | 0.00 | 50 | 1003.9 |
| 20260505221005 | 90 | 262 | 2.6 | 7.8 | 0.00 | 0.00 | 0.00 | 51 | 1003.9 |
| 20260505220506 | 90 | 180 | 2.6 | 8.7 | 0.00 | 0.00 | 0.00 | 50 | 1004.1 |
| 20260505220005 | 89 | 254 | 6.1 | 11.3 | 0.00 | 0.00 | 0.00 | 52 | 1004.1 |
| 20260505215505 | 90 | 260 | 6.1 | 10.4 | 0.00 | 0.00 | 0.00 | 51 | 1004.1 |
| 20260505215005 | 90 | 199 | 3.5 | 7.8 | 0.00 | 0.00 | 0.00 | 51 | 1004.1 |
| 20260505214505 | 89 | 181 | 2.6 | 7.8 | 0.00 | 0.00 | 0.00 | 52 | 1004.1 |
| 20260505214006 | 89 | 263 | 2.6 | 6.1 | 0.00 | 0.00 | 0.00 | 54 | 1004.1 |
| 20260505213505 | 90 | 182 | 2.6 | 8.7 | 0.00 | 0.00 | 0.00 | 52 | 1004.2 |
| 20260505213005 | 90 | 228 | 5.2 | 11.3 | 0.00 | 0.00 | 0.00 | 53 | 1004.4 |
| 20260505212506 | 90 | 201 | 3.5 | 8.7 | 0.00 | 0.00 | 0.00 | 52 | 1004.3 |
| 20260505212006 | 89 | 221 | 3.5 | 7.8 | 0.00 | 0.00 | 0.00 | 53 | 1004.4 |
| 20260505211005 | 90 | 254 | 4.3 | 10.4 | 0.00 | 0.00 | 0.00 | 52 | 1004.6 |
| 20260505210006 | 89 | 253 | 4.3 | 11.3 | 0.00 | 0.00 | 0.00 | 54 | 1004.6 |
| 20260505205505 | 89 | 246 | 6.1 | 8.7 | 0.00 | 0.00 | 0.00 | 52 | 1004.6 |
| 20260505205005 | 89 | 213 | 4.3 | 11.3 | 0.00 | 0.00 | 0.00 | 53 | 1004.7 |
| 20260505204506 | 89 | 236 | 4.3 | 7.8 | 0.00 | 0.00 | 0.00 | 53 | 1004.7 |
| 20260505204006 | 89 | 218 | 3.5 | 10.4 | 0.00 | 0.00 | 0.00 | 53 | 1004.9 |
| 20260505203505 | 90 | 278 | 5.2 | 14.8 | 0.00 | 0.00 | 0.00 | 52 | 1005.1 |
| 20260505203005 | 89 | 246 | 7.0 | 15.6 | 0.00 | 0.00 | 0.00 | 54 | 1005.0 |
| 20260505202505 | 89 | 179 | 3.5 | 11.3 | 0.00 | 0.00 | 0.00 | 55 | 1005.0 |
| 20260505202005 | 89 | 260 | 5.2 | 13.0 | 0.00 | 0.00 | 0.00 | 57 | 1005.0 |
| 20260505201506 | 88 | 219 | 7.0 | 14.8 | 0.00 | 0.00 | 0.00 | 57 | 1005.1 |
| 20260505201005 | 89 | 184 | 2.6 | 11.3 | 0.00 | 0.00 | 0.00 | 56 | 1005.0 |
| 20260505200505 | 89 | 226 | 4.3 | 8.7 | 0.00 | 0.00 | 0.00 | 56 | 1005.0 |
| 20260505200005 | 89 | 178 | 4.3 | 10.4 | 0.00 | 0.00 | 0.00 | 58 | 1005.0 |
| 20260505195505 | 89 | 198 | 6.1 | 11.3 | 0.00 | 0.00 | 0.00 | 56 | 1005.1 |
| 20260505195005 | 88 | 233 | 4.3 | 12.2 | 0.00 | 0.00 | 0.00 | 58 | 1005.2 |
| 20260505194505 | 88 | 268 | 6.1 | 17.4 | 0.00 | 0.00 | 0.00 | 57 | 1005.2 |
| 20260505193505 | 86 | 195 | 8.7 | 15.6 | 0.00 | 0.00 | 0.00 | 60 | 1005.1 |
| 20260505193005 | 87 | 193 | 6.1 | 11.3 | 0.00 | 0.00 | 0.00 | 60 | 1005.1 |
| 20260505192505 | 87 | 197 | 5.2 | 11.3 | 0.00 | 0.00 | 0.00 | 60 | 1005.3 |
| 20260505192005 | 87 | 190 | 5.2 | 13.9 | 0.00 | 0.00 | 0.00 | 60 | 1005.3 |
| 20260505191505 | 86 | 209 | 5.2 | 13.0 | 0.00 | 0.00 | 0.00 | 62 | 1005.2 |
| 20260505191005 | 86 | 196 | 7.0 | 13.0 | 0.00 | 0.00 | 0.00 | 62 | 1005.1 |
| 20260505185504 | 85 | 231 | 4.3 | 11.3 | 0.00 | 0.00 | 0.00 | 63 | 1005.3 |
| 20260505185005 | 85 | 196 | 6.1 | 13.0 | 0.00 | 0.00 | 0.00 | 63 | 1005.3 |
| 20260505184505 | 84 | 212 | 7.8 | 12.2 | 0.00 | 0.00 | 0.00 | 63 | 1005.3 |
| 20260505184005 | 84 | 199 | 4.3 | 8.7 | 0.00 | 0.00 | 0.00 | 64 | 1005.4 |
| 20260505183505 | 84 | 19 | 2.6 | 13.0 | 0.00 | 0.00 | 0.00 | 64 | 1005.4 |
| 20260505183005 | 84 | 218 | 6.1 | 14.8 | 0.00 | 0.00 | 0.00 | 63 | 1005.4 |
| 20260505182505 | 85 | 202 | 3.5 | 10.4 | 0.00 | 0.00 | 0.00 | 64 | 1005.3 |
| 20260505182004 | 84 | 189 | 6.1 | 11.3 | 0.00 | 0.00 | 0.00 | 64 | 1005.4 |
| 20260505181505 | 84 | 220 | 3.5 | 10.4 | 0.00 | 0.00 | 0.00 | 63 | 1005.5 |
| 20260505181005 | 84 | 231 | 5.2 | 12.2 | 0.00 | 0.00 | 0.00 | 64 | 1005.5 |
| 20260505180505 | 84 | 255 | 6.1 | 12.2 | 0.00 | 0.00 | 0.00 | 64 | 1005.4 |
| 20260505175505 | 84 | 193 | 6.1 | 14.8 | 0.00 | 0.00 | 0.00 | 66 | 1005.3 |
| 20260505175005 | 84 | 209 | 6.1 | 14.8 | 0.00 | 0.00 | 0.00 | 66 | 1005.4 |
| 20260505174505 | 83 | 194 | 7.8 | 15.6 | 0.00 | 0.00 | 0.00 | 66 | 1005.5 |
| 20260505174005 | 83 | 210 | 5.2 | 13.9 | 0.00 | 0.00 | 0.00 | 67 | 1005.5 |
| 20260505173505 | 82 | 183 | 5.2 | 11.3 | 0.00 | 0.00 | 0.00 | 67 | 1005.5 |
| 20260505172505 | 82 | 231 | 5.2 | 11.3 | 0.00 | 0.00 | 0.00 | 68 | 1005.6 |
| 20260505172005 | 82 | 225 | 4.3 | 12.2 | 0.00 | 0.00 | 0.00 | 68 | 1005.6 |
| 20260505171505 | 81 | 194 | 5.2 | 11.3 | 0.00 | 0.00 | 0.00 | 69 | 1005.6 |
| 20260505171004 | 80 | 206 | 7.8 | 17.4 | 0.00 | 0.00 | 0.00 | 69 | 1005.6 |
| 20260505170505 | 81 | 205 | 7.8 | 13.0 | 0.00 | 0.00 | 0.00 | 69 | 1005.6 |
| 20260505170005 | 81 | 195 | 7.0 | 13.9 | 0.00 | 0.00 | 0.00 | 69 | 1005.7 |
| 20260505165005 | 80 | 189 | 6.1 | 18.2 | 0.00 | 0.00 | 0.00 | 70 | 1005.6 |
| 20260505164505 | 80 | 223 | 6.1 | 13.9 | 0.00 | 0.00 | 0.00 | 70 | 1005.6 |
| 20260505164005 | 79 | 215 | 5.2 | 10.4 | 0.00 | 0.00 | 0.00 | 71 | 1005.5 |
| 20260505163504 | 79 | 223 | 4.3 | 15.6 | 0.00 | 0.00 | 0.00 | 71 | 1005.5 |
| 20260505163005 | 79 | 210 | 8.7 | 15.6 | 0.00 | 0.00 | 0.00 | 71 | 1005.4 |
| 20260505162505 | 79 | 213 | 6.1 | 13.9 | 0.00 | 0.00 | 0.00 | 71 | 1005.4 |
| 20260505162004 | 79 | 199 | 7.8 | 13.9 | 0.00 | 0.00 | 0.00 | 72 | 1005.4 |
| 20260505161505 | 79 | 211 | 5.2 | 11.3 | 0.00 | 0.00 | 0.00 | 71 | 1005.4 |
| 20260505161005 | 79 | 224 | 6.1 | 11.3 | 0.00 | 0.00 | 0.00 | 72 | 1005.4 |
| 20260505160505 | 78 | 213 | 6.1 | 11.3 | 0.00 | 0.00 | 0.00 | 73 | 1005.3 |
| 20260505153005 | 77 | 214 | 7.8 | 14.8 | 0.00 | 0.00 | 0.00 | 74 | 1005.1 |
| 20260505152504 | 78 | 194 | 8.7 | 19.1 | 0.00 | 0.00 | 0.00 | 74 | 1005.2 |
| 20260505152005 | 77 | 201 | 4.3 | 21.7 | 0.00 | 0.00 | 0.00 | 74 | 1005.4 |
| 20260505151504 | 77 | 204 | 4.3 | 11.3 | 0.00 | 0.00 | 0.00 | 76 | 1005.4 |
| 20260505151005 | 76 | 183 | 8.7 | 20.0 | 0.00 | 0.00 | 0.00 | 76 | 1005.5 |
| 20260505150504 | 75 | 212 | 8.7 | 17.4 | 0.00 | 0.00 | 0.00 | 77 | 1005.4 |
| 20260505140505 | 74 | 185 | 7.0 | 19.1 | 0.00 | 0.00 | 0.00 | 79 | 1005.3 |
| 20260505125005 | 72 | 197 | 5.2 | 11.3 | 0.00 | 0.00 | 0.00 | 82 | 1004.8 |
| 20260505123504 | 71 | 164 | 5.2 | 12.2 | 0.00 | 0.00 | 0.00 | 83 | 1004.5 |
| 20260505123004 | 71 | 193 | 5.2 | 12.2 | 0.00 | 0.00 | 0.00 | 83 | 1004.4 |
| 20260505122504 | 71 | 196 | 6.1 | 14.8 | 0.00 | 0.00 | 0.00 | 83 | 1004.5 |
| 20260505122004 | 71 | 202 | 6.1 | 13.9 | 0.00 | 0.00 | 0.00 | 83 | 1004.4 |
| 20260505121504 | 71 | 193 | 6.1 | 13.9 | 0.00 | 0.00 | 0.00 | 83 | 1004.4 |
| 20260505121004 | 71 | 197 | 7.8 | 13.9 | 0.00 | 0.00 | 0.00 | 83 | 1004.4 |
| 20260505120504 | 71 | 203 | 5.2 | 13.0 | 0.00 | 0.00 | 0.00 | 82 | 1004.4 |
| 20260505120005 | 71 | 205 | 6.1 | 13.9 | 0.00 | 0.00 | 0.00 | 82 | 1004.2 |
| 20260505115504 | 71 | 177 | 6.1 | 15.6 | 0.00 | 0.00 | 0.00 | 82 | 1004.2 |
| 20260505115004 | 71 | 215 | 7.0 | 17.4 | 0.00 | 0.00 | 0.00 | 82 | 1004.1 |
| 20260505114504 | 71 | 189 | 4.3 | 12.2 | 0.00 | 0.00 | 0.00 | 82 | 1004.2 |
| 20260505114004 | 71 | 193 | 6.1 | 14.8 | 0.00 | 0.00 | 0.00 | 82 | 1004.3 |
| 20260505113505 | 71 | 192 | 4.3 | 10.4 | 0.00 | 0.00 | 0.00 | 82 | 1004.2 |
| 20260505113004 | 72 | 202 | 5.2 | 20.0 | 0.00 | 0.00 | 0.00 | 82 | 1004.1 |
| 20260505112504 | 71 | 179 | 6.1 | 13.0 | 0.00 | 0.00 | 0.00 | 82 | 1004.2 |
| 20260505112004 | 71 | 233 | 7.0 | 14.8 | 0.00 | 0.00 | 0.00 | 82 | 1004.1 |
| 20260505111504 | 71 | 190 | 5.2 | 14.8 | 0.00 | 0.00 | 0.00 | 82 | 1004.1 |
| 20260505111004 | 71 | 178 | 6.1 | 22.6 | 0.00 | 0.00 | 0.00 | 82 | 1004.4 |
| 20260505110504 | 71 | 239 | 2.6 | 14.8 | 0.00 | 0.00 | 0.00 | 82 | 1004.3 |
| 20260505102004 | 71 | 205 | 7.0 | 13.0 | 0.00 | 0.00 | 0.00 | 82 | 1004.3 |
| 20260505101504 | 71 | 223 | 6.1 | 12.2 | 0.00 | 0.00 | 0.00 | 82 | 1004.3 |
| 20260505101004 | 71 | 187 | 7.0 | 18.2 | 0.00 | 0.00 | 0.00 | 82 | 1004.2 |
| 20260505100504 | 71 | 202 | 5.2 | 12.2 | 0.00 | 0.00 | 0.00 | 82 | 1004.3 |
| 20260505095504 | 71 | 187 | 10.4 | 17.4 | 0.00 | 0.00 | 0.00 | 82 | 1004.3 |
| 20260505095004 | 71 | 200 | 6.1 | 13.9 | 0.00 | 0.00 | 0.00 | 82 | 1004.5 |
| 20260505094504 | 71 | 195 | 7.0 | 13.9 | 0.00 | 0.00 | 0.00 | 82 | 1004.4 |
| 20260505093504 | 71 | 200 | 3.5 | 13.9 | 0.00 | 0.00 | 0.00 | 82 | 1004.6 |
| 20260505093004 | 71 | 203 | 5.2 | 13.0 | 0.00 | 0.00 | 0.00 | 82 | 1004.6 |
| 20260505092504 | 71 | 195 | 6.1 | 12.2 | 0.00 | 0.00 | 0.00 | 82 | 1004.6 |
| 20260505092004 | 71 | 189 | 6.1 | 13.0 | 0.00 | 0.00 | 0.00 | 82 | 1004.7 |
| 20260505091504 | 71 | 204 | 4.3 | 10.4 | 0.00 | 0.00 | 0.00 | 82 | 1004.7 |
| 20260505091004 | 71 | 198 | 6.1 | 11.3 | 0.00 | 0.00 | 0.00 | 82 | 1004.8 |
| 20260505090504 | 71 | 217 | 7.0 | 13.0 | 0.00 | 0.00 | 0.00 | 82 | 1004.7 |
| 20260505090004 | 71 | 208 | 6.1 | 14.8 | 0.00 | 0.00 | 0.00 | 82 | 1004.7 |
| 20260505085503 | 71 | 192 | 6.1 | 11.3 | 0.00 | 0.00 | 0.00 | 82 | 1004.7 |
| 20260505085003 | 71 | 204 | 7.0 | 18.2 | 0.00 | 0.00 | 0.00 | 82 | 1004.7 |
| 20260505084504 | 71 | 190 | 5.2 | 17.4 | 0.00 | 0.00 | 0.00 | 82 | 1004.7 |
| 20260505084003 | 71 | 205 | 6.1 | 13.9 | 0.00 | 0.00 | 0.00 | 82 | 1004.8 |
| 20260505083504 | 71 | 199 | 6.1 | 13.9 | 0.00 | 0.00 | 0.00 | 81 | 1004.8 |
| 20260505083004 | 71 | 177 | 7.8 | 14.8 | 0.00 | 0.00 | 0.00 | 81 | 1004.8 |
| 20260505082504 | 71 | 183 | 7.8 | 18.2 | 0.00 | 0.00 | 0.00 | 81 | 1004.8 |
| 20260505081503 | 71 | 188 | 6.1 | 12.2 | 0.00 | 0.00 | 0.00 | 81 | 1004.8 |
| 20260505081004 | 71 | 181 | 6.1 | 12.2 | 0.00 | 0.00 | 0.00 | 81 | 1004.9 |
| 20260505080504 | 71 | 171 | 6.1 | 11.3 | 0.00 | 0.00 | 0.00 | 80 | 1004.8 |
| 20260505075506 | 72 | 181 | 5.2 | 17.4 | 0.00 | 0.00 | 0.00 | 80 | 1005.1 |
| 20260505075007 | 72 | 186 | 8.7 | 13.9 | 0.00 | 0.00 | 0.00 | 79 | 1005.1 |
| 20260505074507 | 72 | 191 | 7.0 | 17.4 | 0.00 | 0.00 | 0.00 | 79 | 1005.1 |
| 20260505074007 | 72 | 200 | 5.2 | 12.2 | 0.00 | 0.00 | 0.00 | 79 | 1005.3 |
| 20260505073507 | 72 | 184 | 7.8 | 14.8 | 0.00 | 0.00 | 0.00 | 79 | 1005.3 |
| 20260505073006 | 72 | 189 | 6.1 | 14.8 | 0.00 | 0.00 | 0.00 | 79 | 1005.5 |
| 20260505072507 | 72 | 199 | 8.7 | 17.4 | 0.00 | 0.00 | 0.00 | 78 | 1005.7 |
| 20260505072006 | 72 | 195 | 4.3 | 13.9 | 0.00 | 0.00 | 0.00 | 78 | 1005.7 |
| 20260505071507 | 72 | 198 | 4.3 | 11.3 | 0.00 | 0.00 | 0.00 | 78 | 1005.7 |
| 20260505071006 | 72 | 193 | 5.2 | 20.9 | 0.00 | 0.00 | 0.00 | 77 | 1005.7 |
| 20260505070507 | 72 | 197 | 7.8 | 13.9 | 0.00 | 0.00 | 0.00 | 77 | 1005.9 |
| 20260505065506 | 73 | 197 | 5.2 | 8.7 | 0.00 | 0.00 | 0.00 | 77 | 1005.8 |
| 20260505064506 | 73 | 192 | 7.0 | 13.0 | 0.00 | 0.00 | 0.00 | 76 | 1006.0 |
| 20260505064006 | 73 | 192 | 6.1 | 14.8 | 0.00 | 0.00 | 0.00 | 76 | 1006.1 |
| 20260505063506 | 73 | 184 | 8.7 | 13.0 | 0.00 | 0.00 | 0.00 | 76 | 1006.1 |
| 20260505062506 | 73 | 194 | 6.1 | 13.0 | 0.00 | 0.00 | 0.00 | 75 | 1006.1 |
| 20260505062007 | 73 | 186 | 6.1 | 13.9 | 0.00 | 0.00 | 0.00 | 75 | 1006.1 |
| 20260505061507 | 73 | 195 | 5.2 | 11.3 | 0.00 | 0.00 | 0.00 | 75 | 1006.1 |
| 20260505061007 | 73 | 190 | 5.2 | 13.0 | 0.00 | 0.00 | 0.00 | 75 | 1006.1 |
| 20260505060507 | 73 | 189 | 7.0 | 15.6 | 0.00 | 0.00 | 0.00 | 75 | 1006.0 |
| 20260505055506 | 73 | 178 | 6.1 | 17.4 | 0.00 | 0.00 | 0.00 | 75 | 1006.1 |
| 20260505054506 | 73 | 184 | 9.6 | 18.2 | 0.00 | 0.00 | 0.00 | 74 | 1006.3 |
| 20260505054007 | 73 | 179 | 7.8 | 13.0 | 0.00 | 0.00 | 0.00 | 74 | 1006.3 |
| 20260505053506 | 73 | 180 | 8.7 | 18.2 | 0.00 | 0.00 | 0.00 | 74 | 1006.3 |
| 20260505053007 | 73 | 185 | 6.1 | 14.8 | 0.00 | 0.00 | 0.00 | 73 | 1006.4 |
| 20260505052507 | 73 | 174 | 7.8 | 13.0 | 0.00 | 0.00 | 0.00 | 73 | 1006.5 |
| 20260505051507 | 73 | 171 | 7.0 | 13.0 | 0.00 | 0.00 | 0.00 | 73 | 1006.6 |
| 20260505051006 | 73 | 188 | 7.0 | 17.4 | 0.00 | 0.00 | 0.00 | 73 | 1006.6 |
| 20260505050506 | 73 | 183 | 6.1 | 13.0 | 0.00 | 0.00 | 0.00 | 72 | 1006.5 |
| 20260505041506 | 74 | 173 | 9.6 | 14.8 | 0.00 | 0.00 | 0.00 | 71 | 1006.8 |
| 20260505041007 | 74 | 187 | 7.0 | 13.0 | 0.00 | 0.00 | 0.00 | 70 | 1006.8 |
| 20260505040507 | 74 | 172 | 9.6 | 15.6 | 0.00 | 0.00 | 0.00 | 70 | 1006.8 |
| 20260505040006 | 74 | 181 | 7.8 | 15.6 | 0.00 | 0.00 | 0.00 | 70 | 1006.8 |
| 20260505035006 | 74 | 180 | 8.7 | 14.8 | 0.00 | 0.00 | 0.00 | 70 | 1006.7 |
| 20260505034506 | 74 | 183 | 8.7 | 13.9 | 0.00 | 0.00 | 0.00 | 70 | 1006.6 |
| 20260505034006 | 74 | 177 | 9.6 | 21.7 | 0.00 | 0.00 | 0.00 | 69 | 1006.8 |
| 20260505033506 | 74 | 174 | 12.2 | 19.1 | 0.00 | 0.00 | 0.00 | 69 | 1006.7 |
| 20260505033006 | 74 | 175 | 9.6 | 14.8 | 0.00 | 0.00 | 0.00 | 69 | 1006.8 |
| 20260505032006 | 74 | 193 | 7.8 | 17.4 | 0.00 | 0.00 | 0.00 | 69 | 1006.8 |
| 20260505031506 | 74 | 182 | 9.6 | 20.0 | 0.00 | 0.00 | 0.00 | 69 | 1006.9 |
| 20260505031006 | 75 | 167 | 8.7 | 17.4 | 0.00 | 0.00 | 0.00 | 68 | 1006.8 |
| 20260505030506 | 75 | 184 | 9.6 | 14.8 | 0.00 | 0.00 | 0.00 | 68 | 1006.7 |
| 20260505030006 | 75 | 187 | 8.7 | 13.9 | 0.00 | 0.00 | 0.00 | 68 | 1006.9 |
| 20260505025506 | 75 | 189 | 7.0 | 13.9 | 0.00 | 0.00 | 0.00 | 68 | 1007.0 |
| 20260505025007 | 75 | 182 | 7.8 | 18.2 | 0.00 | 0.00 | 0.00 | 68 | 1006.7 |
| 20260505024506 | 75 | 182 | 7.8 | 13.0 | 0.00 | 0.00 | 0.00 | 68 | 1006.8 |
| 20260505024006 | 75 | 182 | 8.7 | 18.2 | 0.00 | 0.00 | 0.00 | 68 | 1006.9 |
| 20260505023506 | 75 | 167 | 6.1 | 17.4 | 0.00 | 0.00 | 0.00 | 68 | 1006.9 |
| 20260505022506 | 75 | 174 | 7.8 | 15.6 | 0.00 | 0.00 | 0.00 | 67 | 1006.6 |
| 20260505022006 | 75 | 184 | 7.8 | 14.8 | 0.00 | 0.00 | 0.00 | 67 | 1006.7 |
| 20260505021506 | 75 | 168 | 8.7 | 15.6 | 0.00 | 0.00 | 0.00 | 67 | 1006.5 |
| 20260505020506 | 75 | 177 | 7.8 | 20.0 | 0.00 | 0.00 | 0.00 | 66 | 1006.5 |
| 20260505020006 | 76 | 185 | 7.0 | 13.9 | 0.00 | 0.00 | 0.00 | 66 | 1006.5 |
| 20260505015506 | 76 | 185 | 10.4 | 14.8 | 0.00 | 0.00 | 0.00 | 65 | 1006.5 |
| 20260505015005 | 76 | 161 | 6.1 | 17.4 | 0.00 | 0.00 | 0.00 | 65 | 1006.6 |